Back to catalog

STARLINK-11287

AliveCommunicationsVLEO
NORAD 60998·PAYLOAD·🇺🇸 United States

Launched Sep 5, 2024 from Cape Canaveral Space Force Station

Loading…

Next Passes (next 24 hours)

TLE

FreshSource: CelesTrak SupGP

Epoch: Sep 14, 2026, 22:37 UTC

1 60998C 24158J   26257.94284722  .00092957  00000+0  76552-3 0  2578
2 60998  53.1568  68.4424 0001021  78.5460  51.8533 15.69669277    18

Track STARLINK-11287 in real time with AllMySat

Download on the App Store